Time,TemperatureF,DewpointF,PressureIn,WindDirection,WindDirectionDegrees,WindSpeedMPH,WindSpeedGustMPH,Humidity,HourlyPrecipIn,Conditions,Clouds,dailyrainin,SoftwareType,DateUTC
2013-02-18 00:00:00,20.2,9.6,29.71,WNW,295,8.0,24.0,63,0.00,,---,0.00,VWS V14.01,2013-02-18 05:00:00,
2013-02-18 00:05:00,20.1,9.2,29.71,West,272,14.0,25.0,62,0.00,,---,0.00,VWS V14.01,2013-02-18 05:05:00,
2013-02-18 00:10:00,20.0,9.4,29.71,North,357,10.0,25.0,63,0.00,,---,0.00,VWS V14.01,2013-02-18 05:10:00,
2013-02-18 00:15:00,19.9,9.4,29.71,NNW,329,10.0,25.0,63,0.00,,---,0.00,VWS V14.01,2013-02-18 05:15:00,
2013-02-18 00:20:00,19.9,9.4,29.71,WNW,285,16.0,25.0,63,0.00,,---,0.00,VWS V14.01,2013-02-18 05:20:00,
2013-02-18 00:25:00,19.9,9.7,29.72,WSW,252,3.0,25.0,64,0.00,,---,0.00,VWS V14.01,2013-02-18 05:25:00,
2013-02-18 00:30:00,19.9,9.7,29.72,NNW,328,11.0,25.0,64,0.00,,---,0.00,VWS V14.01,2013-02-18 05:30:00,
2013-02-18 00:35:00,19.8,9.3,29.72,WNW,293,13.0,21.0,63,0.00,,---,0.00,VWS V14.01,2013-02-18 05:35:00,
2013-02-18 00:40:00,19.7,9.2,29.72,NW,304,10.0,21.0,63,0.00,,---,0.00,VWS V14.01,2013-02-18 05:40:00,
2013-02-18 00:45:00,19.7,9.5,29.72,SW,229,12.0,29.0,64,0.00,,---,0.00,VWS V14.01,2013-02-18 05:45:00,
2013-02-18 00:50:00,19.7,9.5,29.72,West,266,13.0,29.0,64,0.00,,---,0.00,VWS V14.01,2013-02-18 05:50:00,
2013-02-18 00:55:00,19.7,9.5,29.72,WSW,253,12.0,29.0,64,0.00,,---,0.00,VWS V14.01,2013-02-18 05:55:00,
2013-02-18 01:00:00,19.7,9.5,29.72,WNW,303,11.0,29.0,64,0.00,,---,0.00,VWS V14.01,2013-02-18 06:00:00,
2013-02-18 01:05:00,19.6,9.8,29.73,WSW,250,6.0,22.0,65,0.00,,---,0.00,VWS V14.01,2013-02-18 06:05:00,
2013-02-18 01:10:00,19.4,9.2,29.72,WNW,292,32.0,32.0,64,0.00,,---,0.00,VWS V14.01,2013-02-18 06:10:00,
2013-02-18 01:15:00,19.4,9.6,29.73,WNW,292,14.0,32.0,65,0.00,,---,0.00,VWS V14.01,2013-02-18 06:15:00,
2013-02-18 01:20:00,19.4,9.9,29.73,SW,234,2.0,32.0,66,0.00,,---,0.00,VWS V14.01,2013-02-18 06:20:00,
2013-02-18 01:25:00,19.4,9.9,29.73,WNW,292,12.0,32.0,66,0.00,,---,0.00,VWS V14.01,2013-02-18 06:25:00,
2013-02-18 01:30:00,19.3,9.5,29.73,West,279,15.0,32.0,65,0.00,,---,0.00,VWS V14.01,2013-02-18 06:30:00,
2013-02-18 01:35:00,19.2,9.0,29.73,WNW,290,10.0,26.0,64,0.00,,---,0.00,VWS V14.01,2013-02-18 06:35:00,
2013-02-18 01:40:00,19.2,9.4,29.73,East,94,12.0,26.0,65,0.00,,---,0.00,VWS V14.01,2013-02-18 06:40:00,
2013-02-18 01:45:00,19.2,9.4,29.74,WNW,303,12.0,26.0,65,0.00,,---,0.00,VWS V14.01,2013-02-18 06:45:00,
2013-02-18 01:50:00,19.1,8.9,29.75,WSW,254,8.0,26.0,64,0.00,,---,0.00,VWS V14.01,2013-02-18 06:50:00,
2013-02-18 01:55:00,19.1,9.3,29.74,WSW,251,8.0,29.0,65,0.00,,---,0.00,VWS V14.01,2013-02-18 06:55:00,
2013-02-18 02:00:00,19.1,9.6,29.74,West,276,3.0,29.0,66,0.00,,---,0.00,VWS V14.01,2013-02-18 07:00:00,
2013-02-18 02:05:00,19.1,10.0,29.74,NW,315,4.0,18.0,67,0.00,,---,0.00,VWS V14.01,2013-02-18 07:05:00,
2013-02-18 02:10:00,19.1,9.6,29.74,NNW,335,8.0,27.0,66,0.00,,---,0.00,VWS V14.01,2013-02-18 07:10:00,
2013-02-18 02:15:00,19.1,9.3,29.74,WNW,293,15.0,27.0,65,0.00,,---,0.00,VWS V14.01,2013-02-18 07:15:00,
2013-02-18 02:20:00,19.0,9.2,29.75,NW,311,8.0,27.0,65,0.00,,---,0.00,VWS V14.01,2013-02-18 07:20:00,
2013-02-18 02:25:00,19.0,9.5,29.75,NNW,337,2.0,27.0,66,0.00,,---,0.00,VWS V14.01,2013-02-18 07:25:00,
2013-02-18 02:30:00,19.0,9.2,29.75,NW,309,8.0,27.0,65,0.00,,---,0.00,VWS V14.01,2013-02-18 07:30:00,
2013-02-18 02:35:00,19.0,8.8,29.75,NNW,328,21.0,21.0,64,0.00,,---,0.00,VWS V14.01,2013-02-18 07:35:00,
2013-02-18 02:40:00,19.0,8.8,29.75,NW,307,8.0,32.0,64,0.00,,---,0.00,VWS V14.01,2013-02-18 07:40:00,
2013-02-18 02:45:00,19.0,9.2,29.75,NW,311,10.0,32.0,65,0.00,,---,0.00,VWS V14.01,2013-02-18 07:45:00,
2013-02-18 02:50:00,19.0,8.8,29.75,WSW,247,4.0,32.0,64,0.00,,---,0.00,VWS V14.01,2013-02-18 07:50:00,
2013-02-18 02:55:00,19.0,8.8,29.76,NW,323,17.0,32.0,64,0.00,,---,0.00,VWS V14.01,2013-02-18 07:55:00,
2013-02-18 03:00:00,19.1,8.9,29.76,WSW,246,2.0,32.0,64,0.00,,---,0.00,VWS V14.01,2013-02-18 08:00:00,
2013-02-18 03:05:00,19.0,8.8,29.77,WNW,299,9.0,25.0,64,0.00,,---,0.00,VWS V14.01,2013-02-18 08:05:00,
2013-02-18 03:10:00,19.1,9.6,29.76,SW,228,2.0,25.0,66,0.00,,---,0.00,VWS V14.01,2013-02-18 08:10:00,
2013-02-18 03:15:00,19.0,8.8,29.76,WNW,299,10.0,25.0,64,0.00,,---,0.00,VWS V14.01,2013-02-18 08:15:00,
2013-02-18 03:20:00,19.0,9.2,29.77,WNW,292,6.0,26.0,65,0.00,,---,0.00,VWS V14.01,2013-02-18 08:20:00,
2013-02-18 03:25:00,19.0,9.2,29.77,West,269,4.0,26.0,65,0.00,,---,0.00,VWS V14.01,2013-02-18 08:25:00,
2013-02-18 03:30:00,19.0,8.8,29.78,WNW,292,7.0,26.0,64,0.00,,---,0.00,VWS V14.01,2013-02-18 08:30:00,
2013-02-18 03:35:00,19.0,8.8,29.78,WNW,297,10.0,17.0,64,0.00,,---,0.00,VWS V14.01,2013-02-18 08:35:00,
2013-02-18 03:40:00,18.9,8.4,29.78,NW,304,5.0,22.0,63,0.00,,---,0.00,VWS V14.01,2013-02-18 08:40:00,
2013-02-18 03:45:00,18.9,8.8,29.79,West,275,8.0,22.0,64,0.00,,---,0.00,VWS V14.01,2013-02-18 08:45:00,
2013-02-18 03:50:00,18.9,8.4,29.78,WNW,299,26.0,30.0,63,0.00,,---,0.00,VWS V14.01,2013-02-18 08:50:00,
2013-02-18 03:55:00,18.8,8.3,29.78,NW,306,7.0,30.0,63,0.00,,---,0.00,VWS V14.01,2013-02-18 08:55:00,
2013-02-18 04:00:00,18.8,8.3,29.80,WNW,294,16.0,30.0,63,0.00,,---,0.00,VWS V14.01,2013-02-18 09:00:00,
2013-02-18 04:05:00,18.8,8.3,29.80,NW,304,4.0,25.0,63,0.00,,---,0.00,VWS V14.01,2013-02-18 09:05:00,
2013-02-18 04:10:00,18.7,8.2,29.79,NNW,346,20.0,25.0,63,0.00,,---,0.00,VWS V14.01,2013-02-18 09:10:00,
2013-02-18 04:15:00,18.8,7.9,29.80,NW,314,3.0,28.0,62,0.00,,---,0.00,VWS V14.01,2013-02-18 09:15:00,
2013-02-18 04:20:00,18.8,8.3,29.80,WNW,284,9.0,28.0,63,0.00,,---,0.00,VWS V14.01,2013-02-18 09:20:00,
2013-02-18 04:25:00,18.8,8.3,29.81,NNW,339,7.0,28.0,63,0.00,,---,0.00,VWS V14.01,2013-02-18 09:25:00,
2013-02-18 04:30:00,18.8,8.6,29.81,WSW,251,10.0,28.0,64,0.00,,---,0.00,VWS V14.01,2013-02-18 09:30:00,
2013-02-18 04:35:00,18.8,7.9,29.82,WNW,288,21.0,21.0,62,0.00,,---,0.00,VWS V14.01,2013-02-18 09:35:00,
2013-02-18 04:40:00,18.8,8.3,29.82,WNW,289,11.0,21.0,63,0.00,,---,0.00,VWS V14.01,2013-02-18 09:40:00,
2013-02-18 04:45:00,18.7,7.9,29.82,WNW,303,6.0,21.0,62,0.00,,---,0.00,VWS V14.01,2013-02-18 09:45:00,
2013-02-18 04:50:00,18.7,8.2,29.83,WNW,286,6.0,21.0,63,0.00,,---,0.00,VWS V14.01,2013-02-18 09:50:00,
2013-02-18 04:55:00,18.7,8.2,29.83,East,94,3.0,22.0,63,0.00,,---,0.00,VWS V14.01,2013-02-18 09:55:00,
2013-02-18 05:00:00,18.7,8.2,29.83,WNW,299,8.0,23.0,63,0.00,,---,0.00,VWS V14.01,2013-02-18 10:00:00,
2013-02-18 05:05:00,18.7,8.2,29.84,WNW,286,13.0,26.0,63,0.00,,---,0.00,VWS V14.01,2013-02-18 10:05:00,
2013-02-18 05:10:00,18.7,8.2,29.84,WSW,255,7.0,26.0,63,0.00,,---,0.00,VWS V14.01,2013-02-18 10:10:00,
2013-02-18 05:15:00,18.7,7.9,29.85,WNW,282,4.0,26.0,62,0.00,,---,0.00,VWS V14.01,2013-02-18 10:15:00,
2013-02-18 05:20:00,18.6,8.1,29.85,WNW,287,12.0,26.0,63,0.00,,---,0.00,VWS V14.01,2013-02-18 10:20:00,
2013-02-18 05:25:00,18.6,8.5,29.85,WNW,282,10.0,26.0,64,0.00,,---,0.00,VWS V14.01,2013-02-18 10:25:00,
2013-02-18 05:30:00,18.6,8.1,29.86,East,94,8.0,26.0,63,0.00,,---,0.00,VWS V14.01,2013-02-18 10:30:00,
2013-02-18 05:35:00,18.6,8.1,29.86,WNW,303,17.0,17.0,63,0.00,,---,0.00,VWS V14.01,2013-02-18 10:35:00,
2013-02-18 05:40:00,18.6,8.5,29.86,WNW,297,9.0,17.0,64,0.00,,---,0.00,VWS V14.01,2013-02-18 10:40:00,
2013-02-18 05:45:00,18.6,8.1,29.87,West,278,11.0,18.0,63,0.00,,---,0.00,VWS V14.01,2013-02-18 10:45:00,
2013-02-18 05:50:00,18.6,8.5,29.87,WSW,254,6.0,19.0,64,0.00,,---,0.00,VWS V14.01,2013-02-18 10:50:00,
2013-02-18 05:55:00,18.6,8.5,29.87,WSW,258,14.0,19.0,64,0.00,,---,0.00,VWS V14.01,2013-02-18 10:55:00,
2013-02-18 06:00:00,18.7,8.6,29.88,NW,307,8.0,34.0,64,0.00,,---,0.00,VWS V14.01,2013-02-18 11:00:00,
2013-02-18 06:05:00,18.7,8.6,29.88,NW,312,7.0,16.0,64,0.00,,---,0.00,VWS V14.01,2013-02-18 11:05:00,
2013-02-18 06:10:00,18.7,8.6,29.88,WNW,290,11.0,26.0,64,0.00,,---,0.00,VWS V14.01,2013-02-18 11:10:00,
2013-02-18 06:15:00,18.6,8.5,29.88,WNW,297,7.0,26.0,64,0.00,,---,0.00,VWS V14.01,2013-02-18 11:15:00,
2013-02-18 06:20:00,18.6,8.1,29.88,West,274,7.0,26.0,63,0.00,,---,0.00,VWS V14.01,2013-02-18 11:20:00,
2013-02-18 06:25:00,18.6,8.5,29.88,West,280,14.0,26.0,64,0.00,,---,0.00,VWS V14.01,2013-02-18 11:25:00,
2013-02-18 06:30:00,18.6,8.5,29.89,East,94,7.0,26.0,64,0.00,,---,0.00,VWS V14.01,2013-02-18 11:30:00,
2013-02-18 06:35:00,18.6,8.5,29.89,WNW,299,8.0,19.0,64,0.00,,---,0.00,VWS V14.01,2013-02-18 11:35:00,
2013-02-18 06:40:00,18.6,8.1,29.90,NNW,340,10.0,29.0,63,0.00,,---,0.00,VWS V14.01,2013-02-18 11:40:00,
2013-02-18 06:45:00,18.5,8.0,29.90,West,278,10.0,29.0,63,0.00,,---,0.00,VWS V14.01,2013-02-18 11:45:00,
2013-02-18 06:50:00,18.5,8.4,29.90,NW,315,7.0,29.0,64,0.00,,---,0.00,VWS V14.01,2013-02-18 11:50:00,
2013-02-18 06:55:00,18.6,8.1,29.91,West,280,13.0,29.0,63,0.00,,---,0.00,VWS V14.01,2013-02-18 11:55:00,
2013-02-18 07:00:00,18.6,8.5,29.91,WNW,296,11.0,29.0,64,0.00,,---,0.00,VWS V14.01,2013-02-18 12:00:00,
2013-02-18 07:05:00,18.6,8.1,29.92,WNW,292,15.0,18.0,63,0.00,,---,0.00,VWS V14.01,2013-02-18 12:05:00,
2013-02-18 07:10:00,18.6,7.8,29.92,NW,319,5.0,22.0,62,0.00,,---,0.00,VWS V14.01,2013-02-18 12:10:00,
2013-02-18 07:15:00,18.6,8.5,29.92,West,262,2.0,22.0,64,0.00,,---,0.00,VWS V14.01,2013-02-18 12:15:00,
2013-02-18 07:20:00,18.7,8.2,29.93,West,265,5.0,24.0,63,0.00,,---,0.00,VWS V14.01,2013-02-18 12:20:00,
2013-02-18 07:25:00,18.8,8.6,29.93,WNW,296,17.0,24.0,64,0.00,,---,0.00,VWS V14.01,2013-02-18 12:25:00,
2013-02-18 07:30:00,19.0,8.5,29.93,NW,309,22.0,27.0,63,0.00,,---,0.00,VWS V14.01,2013-02-18 12:30:00,
2013-02-18 07:35:00,19.2,8.7,29.93,WNW,301,8.0,29.0,63,0.00,,---,0.00,VWS V14.01,2013-02-18 12:35:00,
2013-02-18 07:40:00,19.5,8.6,29.94,NW,313,8.0,29.0,62,0.00,,---,0.00,VWS V14.01,2013-02-18 12:40:00,
2013-02-18 07:45:00,19.7,8.8,29.94,WNW,292,3.0,29.0,62,0.00,,---,0.00,VWS V14.01,2013-02-18 12:45:00,
2013-02-18 07:50:00,19.9,9.4,29.94,WNW,301,6.0,29.0,63,0.00,,---,0.00,VWS V14.01,2013-02-18 12:50:00,
2013-02-18 07:55:00,20.0,8.7,29.94,West,271,13.0,29.0,61,0.00,,---,0.00,VWS V14.01,2013-02-18 12:55:00,
2013-02-18 08:00:00,20.3,9.4,29.94,WNW,294,8.0,29.0,62,0.00,,---,0.00,VWS V14.01,2013-02-18 13:00:00,
2013-02-18 08:05:00,20.4,8.7,29.95,WSW,255,3.0,22.0,60,0.00,,---,0.00,VWS V14.01,2013-02-18 13:05:00,
2013-02-18 08:10:00,20.6,9.7,29.95,WNW,296,13.0,22.0,62,0.00,,---,0.00,VWS V14.01,2013-02-18 13:10:00,
2013-02-18 08:15:00,20.8,9.5,29.95,NW,309,18.0,30.0,61,0.00,,---,0.00,VWS V14.01,2013-02-18 13:15:00,
2013-02-18 08:20:00,20.9,9.2,29.95,NW,313,6.0,30.0,60,0.00,,---,0.00,VWS V14.01,2013-02-18 13:20:00,
2013-02-18 08:25:00,21.2,9.9,29.96,WNW,303,12.0,30.0,61,0.00,,---,0.00,VWS V14.01,2013-02-18 13:25:00,
2013-02-18 08:30:00,21.4,10.1,29.95,NW,320,22.0,30.0,61,0.00,,---,0.00,VWS V14.01,2013-02-18 13:30:00,
2013-02-18 08:35:00,21.6,9.9,29.96,NW,319,5.0,25.0,60,0.00,,---,0.00,VWS V14.01,2013-02-18 13:35:00,
2013-02-18 08:40:00,21.9,10.2,29.96,NW,322,8.0,26.0,60,0.00,,---,0.00,VWS V14.01,2013-02-18 13:40:00,
2013-02-18 08:45:00,22.2,10.8,29.96,WNW,296,12.0,26.0,61,0.00,,---,0.00,VWS V14.01,2013-02-18 13:45:00,
2013-02-18 08:50:00,22.5,11.1,29.96,WSW,248,10.0,26.0,61,0.00,,---,0.00,VWS V14.01,2013-02-18 13:50:00,
2013-02-18 08:55:00,22.6,10.1,29.96,WNW,294,6.0,26.0,58,0.00,,---,0.00,VWS V14.01,2013-02-18 13:55:00,
2013-02-18 09:00:00,22.8,10.2,29.97,WSW,243,18.0,26.0,58,0.00,,---,0.00,VWS V14.01,2013-02-18 14:00:00,
2013-02-18 09:05:00,22.9,10.3,29.98,NNW,328,4.0,29.0,58,0.00,,---,0.00,VWS V14.01,2013-02-18 14:05:00,
2013-02-18 09:10:00,23.2,11.0,29.98,SW,220,13.0,29.0,59,0.00,,---,0.00,VWS V14.01,2013-02-18 14:10:00,
2013-02-18 09:15:00,23.5,11.3,29.98,NW,317,7.0,29.0,59,0.00,,---,0.00,VWS V14.01,2013-02-18 14:15:00,
2013-02-18 09:20:00,23.8,11.2,29.99,NW,324,5.0,29.0,58,0.00,,---,0.00,VWS V14.01,2013-02-18 14:20:00,
2013-02-18 09:25:00,24.0,11.0,29.99,North,351,7.0,29.0,57,0.00,,---,0.00,VWS V14.01,2013-02-18 14:25:00,
2013-02-18 09:30:00,23.9,10.5,29.99,NW,307,9.0,29.0,56,0.00,,---,0.00,VWS V14.01,2013-02-18 14:30:00,
2013-02-18 09:35:00,24.1,11.1,29.98,East,94,5.0,28.0,57,0.00,,---,0.00,VWS V14.01,2013-02-18 14:35:00,
2013-02-18 09:40:00,24.3,10.9,29.98,WNW,296,17.0,28.0,56,0.00,,---,0.00,VWS V14.01,2013-02-18 14:40:00,
2013-02-18 09:45:00,24.5,11.1,29.98,West,268,10.0,28.0,56,0.00,,---,0.00,VWS V14.01,2013-02-18 14:45:00,
2013-02-18 09:50:00,24.7,10.9,29.98,WNW,283,12.0,28.0,55,0.00,,---,0.00,VWS V14.01,2013-02-18 14:50:00,
2013-02-18 09:55:00,25.1,11.6,29.98,NW,307,18.0,28.0,56,0.00,,---,0.00,VWS V14.01,2013-02-18 14:55:00,
2013-02-18 10:00:00,25.4,12.3,29.98,NW,311,15.0,28.0,57,0.00,,---,0.00,VWS V14.01,2013-02-18 15:00:00,
2013-02-18 10:05:00,25.5,11.2,29.99,NNW,341,0.0,28.0,54,0.00,,---,0.00,VWS V14.01,2013-02-18 15:05:00,
2013-02-18 10:10:00,25.7,11.8,29.99,WNW,284,0.0,28.0,55,0.00,,---,0.00,VWS V14.01,2013-02-18 15:10:00,
2013-02-18 10:15:00,25.9,11.6,29.99,West,260,2.0,28.0,54,0.00,,---,0.00,VWS V14.01,2013-02-18 15:15:00,
2013-02-18 10:20:00,26.2,11.4,30.00,NW,311,4.0,28.0,53,0.00,,---,0.00,VWS V14.01,2013-02-18 15:20:00,
2013-02-18 10:25:00,26.4,11.6,30.00,NW,305,5.0,28.0,53,0.00,,---,0.00,VWS V14.01,2013-02-18 15:25:00,
2013-02-18 10:30:00,26.5,11.3,30.01,West,278,10.0,28.0,52,0.00,,---,0.00,VWS V14.01,2013-02-18 15:30:00,
2013-02-18 10:35:00,26.6,11.8,30.02,WSW,240,6.0,14.0,53,0.00,,---,0.00,VWS V14.01,2013-02-18 15:35:00,
2013-02-18 10:40:00,26.8,12.0,30.02,WSW,240,4.0,14.0,53,0.00,,---,0.00,VWS V14.01,2013-02-18 15:40:00,
2013-02-18 10:45:00,26.9,11.2,30.01,West,280,3.0,18.0,51,0.00,,---,0.00,VWS V14.01,2013-02-18 15:45:00,
2013-02-18 10:50:00,27.0,11.7,30.01,West,278,5.0,18.0,52,0.00,,---,0.00,VWS V14.01,2013-02-18 15:50:00,
2013-02-18 10:55:00,27.1,11.8,30.01,SW,226,1.0,18.0,52,0.00,,---,0.00,VWS V14.01,2013-02-18 15:55:00,
2013-02-18 11:01:00,27.4,12.1,30.01,WNW,303,8.0,19.0,52,0.00,,---,0.00,VWS V14.01,2013-02-18 16:01:00,
2013-02-18 11:06:00,27.6,11.4,30.01,NW,306,13.0,25.0,50,0.00,,---,0.00,VWS V14.01,2013-02-18 16:06:00,
2013-02-18 11:11:00,27.8,12.0,30.01,West,261,4.0,25.0,51,0.00,,---,0.00,VWS V14.01,2013-02-18 16:11:00,
2013-02-18 11:16:00,28.1,12.3,30.01,NW,326,5.0,25.0,51,0.00,,---,0.00,VWS V14.01,2013-02-18 16:16:00,
2013-02-18 11:21:00,28.4,12.6,30.01,West,270,0.0,26.0,51,0.00,,---,0.00,VWS V14.01,2013-02-18 16:21:00,
2013-02-18 11:26:00,28.8,13.0,30.01,West,275,0.0,26.0,51,0.00,,---,0.00,VWS V14.01,2013-02-18 16:26:00,
2013-02-18 11:31:00,29.0,12.7,30.01,WSW,253,2.0,26.0,50,0.00,,---,0.00,VWS V14.01,2013-02-18 16:31:00,
2013-02-18 11:36:00,29.4,13.5,30.01,WNW,296,0.0,11.0,51,0.00,,---,0.00,VWS V14.01,2013-02-18 16:36:00,
2013-02-18 11:41:00,29.6,13.3,30.01,WNW,290,3.0,24.0,50,0.00,,---,0.00,VWS V14.01,2013-02-18 16:41:00,
2013-02-18 11:46:00,29.8,13.4,30.01,West,278,8.0,24.0,50,0.00,,---,0.00,VWS V14.01,2013-02-18 16:46:00,
2013-02-18 11:51:00,29.9,12.6,30.02,WNW,293,10.0,24.0,48,0.00,,---,0.00,VWS V14.01,2013-02-18 16:51:00,
2013-02-18 11:56:00,29.8,12.5,30.02,WNW,283,7.0,24.0,48,0.00,,---,0.00,VWS V14.01,2013-02-18 16:56:00,
2013-02-18 12:01:00,30.0,12.7,30.02,WNW,286,6.0,6.0,48,0.00,,---,0.00,VWS V14.01,2013-02-18 17:01:00,
2013-02-18 12:06:00,30.2,11.9,30.02,West,261,4.0,16.0,46,0.00,,---,0.00,VWS V14.01,2013-02-18 17:06:00,
2013-02-18 12:11:00,30.5,13.2,30.02,WNW,284,0.0,16.0,48,0.00,,---,0.00,VWS V14.01,2013-02-18 17:11:00,
2013-02-18 12:16:00,30.9,13.1,30.02,WSW,244,2.0,16.0,47,0.00,,---,0.00,VWS V14.01,2013-02-18 17:16:00,
2013-02-18 12:21:00,31.2,12.4,30.02,WNW,286,11.0,18.0,45,0.00,,---,0.00,VWS V14.01,2013-02-18 17:21:00,
2013-02-18 12:26:00,31.4,12.5,30.02,West,261,8.0,18.0,45,0.00,,---,0.00,VWS V14.01,2013-02-18 17:26:00,
2013-02-18 12:31:00,31.5,12.6,30.03,WNW,282,10.0,10.0,45,0.00,,---,0.00,VWS V14.01,2013-02-18 17:31:00,
2013-02-18 12:36:00,31.7,12.3,30.02,WSW,254,2.0,13.0,44,0.00,,---,0.00,VWS V14.01,2013-02-18 17:36:00,
2013-02-18 12:41:00,31.8,12.4,30.03,WNW,298,1.0,17.0,44,0.00,,---,0.00,VWS V14.01,2013-02-18 17:41:00,
2013-02-18 12:46:00,31.9,11.4,30.02,West,261,10.0,17.0,42,0.00,,---,0.00,VWS V14.01,2013-02-18 17:46:00,
2013-02-18 12:51:00,31.9,12.0,30.03,West,259,13.0,17.0,43,0.00,,---,0.00,VWS V14.01,2013-02-18 17:51:00,
2013-02-18 12:56:00,32.1,12.1,30.02,East,94,4.0,24.0,43,0.00,,---,0.00,VWS V14.01,2013-02-18 17:56:00,
2013-02-18 13:01:00,32.6,13.6,30.03,WNW,296,7.0,12.0,45,0.00,,---,0.00,VWS V14.01,2013-02-18 18:01:00,
2013-02-18 13:06:00,32.7,12.7,30.02,WNW,286,11.0,18.0,43,0.00,,---,0.00,VWS V14.01,2013-02-18 18:06:00,
2013-02-18 13:11:00,32.8,13.3,30.03,WSW,242,4.0,18.0,44,0.00,,---,0.00,VWS V14.01,2013-02-18 18:11:00,
2013-02-18 13:16:00,32.9,13.4,30.03,SSW,211,0.0,22.0,44,0.00,,---,0.00,VWS V14.01,2013-02-18 18:16:00,
2013-02-18 13:21:00,32.8,12.2,30.03,WSW,255,10.0,22.0,42,0.00,,---,0.00,VWS V14.01,2013-02-18 18:21:00,
2013-02-18 13:26:00,32.6,12.6,30.03,West,268,5.0,28.0,43,0.00,,---,0.00,VWS V14.01,2013-02-18 18:26:00,
2013-02-18 13:31:00,32.7,13.2,30.04,WSW,250,7.0,7.0,44,0.00,,---,0.00,VWS V14.01,2013-02-18 18:31:00,
2013-02-18 13:36:00,32.8,12.8,30.03,West,274,4.0,17.0,43,0.00,,---,0.00,VWS V14.01,2013-02-18 18:36:00,
2013-02-18 13:41:00,32.7,13.2,30.03,West,266,6.0,17.0,44,0.00,,---,0.00,VWS V14.01,2013-02-18 18:41:00,
2013-02-18 13:46:00,32.5,12.5,30.03,East,94,9.0,22.0,43,0.00,,---,0.00,VWS V14.01,2013-02-18 18:46:00,
2013-02-18 13:51:00,32.6,13.1,30.04,WNW,292,9.0,22.0,44,0.00,,---,0.00,VWS V14.01,2013-02-18 18:51:00,
2013-02-18 13:56:00,32.7,13.2,30.04,NW,304,7.0,22.0,44,0.00,,---,0.00,VWS V14.01,2013-02-18 18:56:00,
2013-02-18 14:01:00,32.5,11.4,30.04,West,265,2.0,8.0,41,0.00,,---,0.00,VWS V14.01,2013-02-18 19:01:00,
2013-02-18 14:06:00,32.7,11.6,30.04,West,274,1.0,20.0,41,0.00,,---,0.00,VWS V14.01,2013-02-18 19:06:00,
2013-02-18 14:11:00,32.8,12.2,30.04,WNW,303,6.0,20.0,42,0.00,,---,0.00,VWS V14.01,2013-02-18 19:11:00,
2013-02-18 14:16:00,33.0,10.8,30.04,NW,305,7.0,20.0,39,0.00,,---,0.00,VWS V14.01,2013-02-18 19:16:00,
2013-02-18 14:21:00,32.9,12.3,30.04,WSW,249,15.0,20.0,42,0.00,,---,0.00,VWS V14.01,2013-02-18 19:21:00,
2013-02-18 14:26:00,33.0,11.3,30.05,West,262,7.0,20.0,40,0.00,,---,0.00,VWS V14.01,2013-02-18 19:26:00,
2013-02-18 14:31:00,33.0,11.3,30.05,WSW,249,6.0,10.0,40,0.00,,---,0.00,VWS V14.01,2013-02-18 19:31:00,
2013-02-18 14:36:00,32.8,11.1,30.05,SSW,213,12.0,18.0,40,0.00,,---,0.00,VWS V14.01,2013-02-18 19:36:00,
2013-02-18 14:41:00,32.7,12.2,30.06,East,94,13.0,18.0,42,0.00,,---,0.00,VWS V14.01,2013-02-18 19:41:00,
2013-02-18 14:46:00,32.7,11.1,30.05,West,267,10.0,18.0,40,0.00,,---,0.00,VWS V14.01,2013-02-18 19:46:00,
2013-02-18 14:51:00,32.6,10.4,30.06,WNW,295,7.0,21.0,39,0.00,,---,0.00,VWS V14.01,2013-02-18 19:51:00,
2013-02-18 14:56:00,32.8,12.2,30.05,WNW,291,3.0,21.0,42,0.00,,---,0.00,VWS V14.01,2013-02-18 19:56:00,
2013-02-18 15:01:00,33.0,11.3,30.05,WSW,249,11.0,14.0,40,0.00,,---,0.00,VWS V14.01,2013-02-18 20:01:00,
2013-02-18 15:06:00,33.1,12.0,30.06,West,278,10.0,14.0,41,0.00,,---,0.00,VWS V14.01,2013-02-18 20:06:00,
2013-02-18 15:11:00,33.0,11.3,30.06,West,259,4.0,16.0,40,0.00,,---,0.00,VWS V14.01,2013-02-18 20:11:00,
2013-02-18 15:16:00,33.0,11.3,30.06,West,267,5.0,16.0,40,0.00,,---,0.00,VWS V14.01,2013-02-18 20:16:00,
2013-02-18 15:21:00,33.2,12.1,30.06,WSW,252,8.0,16.0,41,0.00,,---,0.00,VWS V14.01,2013-02-18 20:21:00,
2013-02-18 15:26:00,33.0,10.2,30.06,WNW,294,4.0,16.0,38,0.00,,---,0.00,VWS V14.01,2013-02-18 20:26:00,
2013-02-18 15:32:00,33.0,11.3,30.05,West,278,1.0,10.0,40,0.00,,---,0.00,VWS V14.01,2013-02-18 20:32:00,
2013-02-18 15:37:00,33.1,10.9,30.06,WSW,242,18.0,18.0,39,0.00,,---,0.00,VWS V14.01,2013-02-18 20:37:00,
2013-02-18 15:42:00,32.8,11.7,30.07,WSW,256,9.0,18.0,41,0.00,,---,0.00,VWS V14.01,2013-02-18 20:42:00,
2013-02-18 15:47:00,32.5,9.1,30.07,WSW,247,13.0,18.0,37,0.00,,---,0.00,VWS V14.01,2013-02-18 20:47:00,
2013-02-18 15:51:00,32.5,10.3,30.07,WNW,289,3.0,18.0,39,0.00,,---,0.00,VWS V14.01,2013-02-18 20:51:00,
2013-02-18 15:56:00,32.6,12.1,30.07,WSW,242,5.0,18.0,42,0.00,,---,0.00,VWS V14.01,2013-02-18 20:56:00,
2013-02-18 16:01:00,32.5,10.9,30.07,SW,236,9.0,9.0,40,0.00,,---,0.00,VWS V14.01,2013-02-18 21:01:00,
2013-02-18 16:06:00,32.1,10.5,30.07,WSW,242,6.0,13.0,40,0.00,,---,0.00,VWS V14.01,2013-02-18 21:06:00,
2013-02-18 16:12:00,32.2,11.7,30.07,West,261,4.0,13.0,42,0.00,,---,0.00,VWS V14.01,2013-02-18 21:12:00,
2013-02-18 16:17:00,32.1,11.6,30.08,SW,236,2.0,16.0,42,0.00,,---,0.00,VWS V14.01,2013-02-18 21:17:00,
2013-02-18 16:22:00,32.2,11.7,30.08,WSW,244,6.0,16.0,42,0.00,,---,0.00,VWS V14.01,2013-02-18 21:22:00,
2013-02-18 16:27:00,32.2,12.2,30.07,SW,232,8.0,16.0,43,0.00,,---,0.00,VWS V14.01,2013-02-18 21:27:00,
2013-02-18 16:32:00,32.2,10.6,30.08,WNW,301,4.0,6.0,40,0.00,,---,0.00,VWS V14.01,2013-02-18 21:32:00,
2013-02-18 16:37:00,32.2,11.2,30.08,West,261,3.0,10.0,41,0.00,,---,0.00,VWS V14.01,2013-02-18 21:37:00,
2013-02-18 16:42:00,32.1,11.1,30.09,West,265,6.0,15.0,41,0.00,,---,0.00,VWS V14.01,2013-02-18 21:42:00,
2013-02-18 16:47:00,32.0,11.5,30.09,West,274,2.0,15.0,42,0.00,,---,0.00,VWS V14.01,2013-02-18 21:47:00,
2013-02-18 16:52:00,31.9,11.4,30.09,WNW,302,7.0,15.0,42,0.00,,---,0.00,VWS V14.01,2013-02-18 21:52:00,
2013-02-18 16:57:00,31.7,10.7,30.09,WNW,298,6.0,15.0,41,0.00,,---,0.00,VWS V14.01,2013-02-18 21:57:00,
2013-02-18 17:02:00,31.6,10.6,30.10,WSW,252,2.0,6.0,41,0.00,,---,0.00,VWS V14.01,2013-02-18 22:02:00,
2013-02-18 17:07:00,31.5,10.0,30.10,West,270,4.0,13.0,40,0.00,,---,0.00,VWS V14.01,2013-02-18 22:07:00,
2013-02-18 17:12:00,31.3,10.3,30.11,SW,236,0.0,13.0,41,0.00,,---,0.00,VWS V14.01,2013-02-18 22:12:00,
2013-02-18 17:17:00,31.2,10.8,30.11,WSW,242,0.0,13.0,42,0.00,,---,0.00,VWS V14.01,2013-02-18 22:17:00,
2013-02-18 17:22:00,31.1,9.6,30.11,West,274,3.0,13.0,40,0.00,,---,0.00,VWS V14.01,2013-02-18 22:22:00,
2013-02-18 17:27:00,31.0,10.6,30.11,West,267,2.0,13.0,42,0.00,,---,0.00,VWS V14.01,2013-02-18 22:27:00,
2013-02-18 17:32:00,30.8,11.5,30.11,WSW,241,7.0,7.0,44,0.00,,---,0.00,VWS V14.01,2013-02-18 22:32:00,
2013-02-18 17:37:00,30.7,10.9,30.11,West,270,3.0,9.0,43,0.00,,---,0.00,VWS V14.01,2013-02-18 22:37:00,
2013-02-18 17:42:00,30.6,10.8,30.12,WSW,246,1.0,9.0,43,0.00,,---,0.00,VWS V14.01,2013-02-18 22:42:00,
2013-02-18 17:47:00,30.7,10.3,30.12,WSW,253,2.0,9.0,42,0.00,,---,0.00,VWS V14.01,2013-02-18 22:47:00,
2013-02-18 17:52:00,30.6,11.3,30.12,WSW,240,5.0,9.0,44,0.00,,---,0.00,VWS V14.01,2013-02-18 22:52:00,
2013-02-18 17:57:00,30.6,11.3,30.12,SW,234,7.0,9.0,44,0.00,,---,0.00,VWS V14.01,2013-02-18 22:57:00,
2013-02-18 18:02:00,30.5,11.7,30.12,WSW,247,3.0,8.0,45,0.00,,---,0.00,VWS V14.01,2013-02-18 23:02:00,
2013-02-18 18:07:00,30.4,11.6,30.13,WSW,238,1.0,8.0,45,0.00,,---,0.00,VWS V14.01,2013-02-18 23:07:00,
2013-02-18 18:12:00,30.3,11.5,30.12,WSW,238,3.0,8.0,45,0.00,,---,0.00,VWS V14.01,2013-02-18 23:12:00,
2013-02-18 18:17:00,30.4,11.1,30.13,WSW,249,2.0,16.0,44,0.00,,---,0.00,VWS V14.01,2013-02-18 23:17:00,
2013-02-18 18:22:00,30.4,12.1,30.13,WSW,242,4.0,16.0,46,0.00,,---,0.00,VWS V14.01,2013-02-18 23:22:00,
2013-02-18 18:27:00,30.4,11.6,30.13,SW,235,8.0,16.0,45,0.00,,---,0.00,VWS V14.01,2013-02-18 23:27:00,
2013-02-18 18:32:00,30.4,11.6,30.13,WSW,237,3.0,7.0,45,0.00,,---,0.00,VWS V14.01,2013-02-18 23:32:00,
2013-02-18 18:37:00,30.3,12.0,30.14,WSW,244,3.0,8.0,46,0.00,,---,0.00,VWS V14.01,2013-02-18 23:37:00,
2013-02-18 18:42:00,30.2,12.4,30.14,SW,234,4.0,8.0,47,0.00,,---,0.00,VWS V14.01,2013-02-18 23:42:00,
2013-02-18 18:47:00,30.1,12.3,30.14,WSW,247,3.0,8.0,47,0.00,,---,0.00,VWS V14.01,2013-02-18 23:47:00,
2013-02-18 18:52:00,30.0,11.7,30.15,SW,232,4.0,8.0,46,0.00,,---,0.00,VWS V14.01,2013-02-18 23:52:00,
2013-02-18 18:57:00,29.9,11.6,30.15,WSW,239,4.0,9.0,46,0.00,,---,0.00,VWS V14.01,2013-02-18 23:57:00,
2013-02-18 19:02:00,29.9,12.1,30.15,WSW,252,2.0,4.0,47,0.00,,---,0.00,VWS V14.01,2013-02-19 00:02:00,
2013-02-18 19:07:00,29.8,12.0,30.15,SW,234,3.0,6.0,47,0.00,,---,0.00,VWS V14.01,2013-02-19 00:07:00,
2013-02-18 19:12:00,29.7,11.9,30.15,WSW,244,7.0,7.0,47,0.00,,---,0.00,VWS V14.01,2013-02-19 00:12:00,
2013-02-18 19:17:00,29.6,12.3,30.15,WSW,251,2.0,7.0,48,0.00,,---,0.00,VWS V14.01,2013-02-19 00:17:00,
2013-02-18 19:22:00,29.6,11.9,30.16,SW,235,7.0,9.0,47,0.00,,---,0.00,VWS V14.01,2013-02-19 00:22:00,
2013-02-18 19:27:00,29.7,11.5,30.16,WSW,243,2.0,9.0,46,0.00,,---,0.00,VWS V14.01,2013-02-19 00:27:00,
2013-02-18 19:32:00,29.7,11.5,30.16,WSW,257,2.0,6.0,46,0.00,,---,0.00,VWS V14.01,2013-02-19 00:32:00,
2013-02-18 19:37:00,29.7,11.9,30.16,SW,234,0.0,7.0,47,0.00,,---,0.00,VWS V14.01,2013-02-19 00:37:00,
2013-02-18 19:42:00,29.6,11.9,30.16,SSW,210,5.0,7.0,47,0.00,,---,0.00,VWS V14.01,2013-02-19 00:42:00,
2013-02-18 19:47:00,29.6,12.3,30.16,SW,222,2.0,7.0,48,0.00,,---,0.00,VWS V14.01,2013-02-19 00:47:00,
2013-02-18 19:52:00,29.6,11.9,30.16,WSW,237,1.0,8.0,47,0.00,,---,0.00,VWS V14.01,2013-02-19 00:52:00,
2013-02-18 19:57:00,29.6,12.3,30.16,WNW,300,5.0,8.0,48,0.00,,---,0.00,VWS V14.01,2013-02-19 00:57:00,
2013-02-18 20:02:00,29.6,12.8,30.17,WSW,240,3.0,6.0,49,0.00,,---,0.00,VWS V14.01,2013-02-19 01:02:00,
2013-02-18 20:07:00,29.5,12.2,30.17,SW,232,0.0,8.0,48,0.00,,---,0.00,VWS V14.01,2013-02-19 01:07:00,
2013-02-18 20:12:00,29.5,12.7,30.17,WSW,251,3.0,8.0,49,0.00,,---,0.00,VWS V14.01,2013-02-19 01:12:00,
2013-02-18 20:17:00,29.4,12.1,30.17,SW,235,2.0,10.0,48,0.00,,---,0.00,VWS V14.01,2013-02-19 01:17:00,
2013-02-18 20:22:00,29.4,11.7,30.17,WSW,246,0.0,10.0,47,0.00,,---,0.00,VWS V14.01,2013-02-19 01:22:00,
2013-02-18 20:27:00,29.5,12.2,30.17,WSW,244,3.0,10.0,48,0.00,,---,0.00,VWS V14.01,2013-02-19 01:27:00,
2013-02-18 20:32:00,29.5,12.2,30.17,WSW,246,1.0,7.0,48,0.00,,---,0.00,VWS V14.01,2013-02-19 01:32:00,
2013-02-18 20:37:00,29.4,11.7,30.17,WSW,240,4.0,10.0,47,0.00,,---,0.00,VWS V14.01,2013-02-19 01:37:00,
2013-02-18 20:42:00,29.4,11.7,30.17,WSW,250,7.0,10.0,47,0.00,,---,0.00,VWS V14.01,2013-02-19 01:42:00,
2013-02-18 20:47:00,29.5,12.7,30.17,West,274,1.0,10.0,49,0.00,,---,0.00,VWS V14.01,2013-02-19 01:47:00,
2013-02-18 20:52:00,29.4,12.1,30.17,WSW,241,7.0,10.0,48,0.00,,---,0.00,VWS V14.01,2013-02-19 01:52:00,
2013-02-18 20:57:00,29.4,12.6,30.17,WNW,287,3.0,10.0,49,0.00,,---,0.00,VWS V14.01,2013-02-19 01:57:00,
2013-02-18 21:02:00,29.3,12.5,30.18,WSW,252,2.0,10.0,49,0.00,,---,0.00,VWS V14.01,2013-02-19 02:02:00,
2013-02-18 21:07:00,29.3,12.5,30.18,WSW,242,2.0,10.0,49,0.00,,---,0.00,VWS V14.01,2013-02-19 02:07:00,
2013-02-18 21:13:00,29.2,12.9,30.18,West,259,5.0,10.0,50,0.00,,---,0.00,VWS V14.01,2013-02-19 02:13:00,
2013-02-18 21:17:00,29.1,12.3,30.18,West,267,2.0,10.0,49,0.00,,---,0.00,VWS V14.01,2013-02-19 02:17:00,
2013-02-18 21:23:00,29.1,12.3,30.18,WSW,238,1.0,10.0,49,0.00,,---,0.00,VWS V14.01,2013-02-19 02:23:00,
2013-02-18 21:28:00,29.0,12.7,30.18,West,276,3.0,10.0,50,0.00,,---,0.00,VWS V14.01,2013-02-19 02:28:00,
2013-02-18 21:33:00,28.9,12.6,30.18,WSW,237,3.0,6.0,50,0.00,,---,0.00,VWS V14.01,2013-02-19 02:33:00,
2013-02-18 21:38:00,28.9,12.6,30.18,WSW,243,3.0,6.0,50,0.00,,---,0.00,VWS V14.01,2013-02-19 02:38:00,
2013-02-18 21:43:00,28.8,12.1,30.18,WSW,237,1.0,9.0,49,0.00,,---,0.00,VWS V14.01,2013-02-19 02:43:00,
2013-02-18 21:48:00,28.8,12.1,30.18,WSW,241,2.0,10.0,49,0.00,,---,0.00,VWS V14.01,2013-02-19 02:48:00,
2013-02-18 21:53:00,28.8,12.5,30.18,SW,232,3.0,10.0,50,0.00,,---,0.00,VWS V14.01,2013-02-19 02:53:00,
2013-02-18 21:58:00,28.8,12.5,30.18,WSW,249,2.0,10.0,50,0.00,,---,0.00,VWS V14.01,2013-02-19 02:58:00,
2013-02-18 22:03:00,28.8,12.5,30.18,SW,232,0.0,9.0,50,0.00,,---,0.00,VWS V14.01,2013-02-19 03:03:00,
2013-02-18 22:08:00,28.8,13.0,30.18,West,261,0.0,9.0,51,0.00,,---,0.00,VWS V14.01,2013-02-19 03:08:00,
2013-02-18 22:13:00,28.7,12.9,30.18,WSW,241,1.0,9.0,51,0.00,,---,0.00,VWS V14.01,2013-02-19 03:13:00,
2013-02-18 22:18:00,28.7,13.3,30.18,WSW,243,2.0,9.0,52,0.00,,---,0.00,VWS V14.01,2013-02-19 03:18:00,
2013-02-18 22:23:00,28.5,13.6,30.18,West,267,1.0,9.0,53,0.00,,---,0.00,VWS V14.01,2013-02-19 03:23:00,
2013-02-18 22:28:00,28.5,13.6,30.18,SW,235,4.0,9.0,53,0.00,,---,0.00,VWS V14.01,2013-02-19 03:28:00,
2013-02-18 22:33:00,28.5,14.0,30.18,SW,230,4.0,5.0,54,0.00,,---,0.00,VWS V14.01,2013-02-19 03:33:00,
2013-02-18 22:38:00,28.5,14.0,30.19,WSW,238,2.0,6.0,54,0.00,,---,0.00,VWS V14.01,2013-02-19 03:38:00,
2013-02-18 22:43:00,28.5,14.0,30.19,WSW,244,2.0,7.0,54,0.00,,---,0.00,VWS V14.01,2013-02-19 03:43:00,
2013-02-18 22:48:00,28.7,13.8,30.19,WSW,248,3.0,7.0,53,0.00,,---,0.00,VWS V14.01,2013-02-19 03:48:00,
2013-02-18 22:53:00,28.7,13.8,30.19,SW,232,0.0,9.0,53,0.00,,---,0.00,VWS V14.01,2013-02-19 03:53:00,
2013-02-18 22:58:00,28.7,14.2,30.19,WSW,242,0.0,9.0,54,0.00,,---,0.00,VWS V14.01,2013-02-19 03:58:00,
2013-02-18 23:03:00,28.6,13.6,30.19,West,263,1.0,7.0,53,0.00,,---,0.00,VWS V14.01,2013-02-19 04:03:00,
2013-02-18 23:08:00,28.5,13.6,30.19,West,259,3.0,7.0,53,0.00,,---,0.00,VWS V14.01,2013-02-19 04:08:00,
2013-02-18 23:13:00,28.6,13.2,30.19,SW,234,0.0,8.0,52,0.00,,---,0.00,VWS V14.01,2013-02-19 04:13:00,
2013-02-18 23:18:00,28.6,13.2,30.19,West,269,1.0,8.0,52,0.00,,---,0.00,VWS V14.01,2013-02-19 04:18:00,
2013-02-18 23:23:00,28.6,13.2,30.20,WSW,253,1.0,8.0,52,0.00,,---,0.00,VWS V14.01,2013-02-19 04:23:00,
2013-02-18 23:28:00,28.6,13.6,30.20,WSW,249,1.0,8.0,53,0.00,,---,0.00,VWS V14.01,2013-02-19 04:28:00,
2013-02-18 23:33:00,28.6,13.6,30.20,West,279,1.0,7.0,53,0.00,,---,0.00,VWS V14.01,2013-02-19 04:33:00,
2013-02-18 23:39:00,28.7,13.3,30.19,WSW,242,3.0,11.0,52,0.00,,---,0.00,VWS V14.01,2013-02-19 04:39:00,
2013-02-18 23:44:00,28.7,13.8,30.19,WSW,241,1.0,11.0,53,0.00,,---,0.00,VWS V14.01,2013-02-19 04:44:00,
2013-02-18 23:49:00,28.7,14.2,30.19,SW,232,0.0,11.0,54,0.00,,---,0.00,VWS V14.01,2013-02-19 04:49:00,
2013-02-18 23:54:00,28.6,14.1,30.20,SW,234,4.0,11.0,54,0.00,,---,0.00,VWS V14.01,2013-02-19 04:54:00,
2013-02-18 23:59:00,28.7,14.2,30.20,WSW,238,1.0,11.0,54,0.00,,---,0.00,VWS V14.01,2013-02-19 04:59:00,